Location: Arbon
(43.0005°N, 0.7472°E)
Time: 22:39:36
(UTC+00:00)

Explorer 7 - Pass Details

Date: 26 November 2020
Orbit: 484 x 678 km, 50.3° (Epoch: 25 January)

Event Time Altitude Azimuth Distance (km) Brightness Sun altitude
Rises 09:23:12 0° 294° (WNW) 2,646 9.8 18.2°
Reaches altitude 10° 09:25:40 10° 282° (WNW) 1,727 9.0 18.4°
Maximum altitude 09:29:00 28° 223° (SW) 958 8.4 18.8°
Drops below altitude 10° 09:32:15 10° 163° (SSE) 1,667 11.1 19.1°
Sets 09:34:35 0° 151° (SSE) 2,534 11.9 19.3°
